Regional Weather Roundup
Issued by NWS

Home | Current Version | Previous Version | Graphics & Text | Print | Product List | Glossary Off
Versions: 1 2 3 4 5 6 7 8 9 10 11 12 13 14 15 16 17 18 19 20 21 22 23 24 25 26 27 28 29 30 31 32 33 34 35 36 37 38 39 40 41 42 43 44 45 46 47 48 49 50

000
ASUS43 KMKX 291500
RWRWI

WISCONSIN REGIONAL WEATHER ROUNDUP
NATIONAL WEATHER SERVICE MILWAUKEE/SULLIVAN WI
1000 AM CDT FRI APR 29 2016

NOTE: "FAIR" INDICATES FEW OR NO CLOUDS BELOW 12,000 FEET WITH NO
SIGNIFICANT WEATHER AND/OR OBSTRUCTIONS TO VISIBILITY.

WIZ001-002-006>008-014>016-023>028-291600-
NORTHWEST WISCONSIN

CITY           SKY/WX    TMP DP  RH WIND       PRES   REMARKS
SUPERIOR ARPT  SUNNY     44  29  55 NE5       30.21S
ASHLAND        SUNNY     45  32  60 N7        30.21R
HAYWARD        SUNNY     46  27  47 E10       30.17F
SIREN          SUNNY     45  28  50 NE9       30.19S
CUMBERLAND     SUNNY     43  30  61 NE6       30.17S
RICE LAKE      SUNNY     43  31  63 NW6       30.18S
CHETEK         SUNNY     44  32  64 CALM      30.17S
LADYSMITH      SUNNY     46  33  60 N3        30.17S
EAU CLAIRE     NOT AVBL
MENOMONIE      PTSUNNY   43  43 100 W5        30.18S
NEW RICHMOND   MOSUNNY   42  36  81 SW5       30.19S
OSCEOLA        SUNNY     42  34  72 CALM      30.22S
$$

WIZ003>005-009-010-017-018-291600-
NORTH CENTRAL WISCONSIN

CITY           SKY/WX    TMP DP  RH WIND       PRES   REMARKS
MANITOWISH WTR SUNNY     45  33  62 CALM      30.15R
ARBOR VITAE    MOSUNNY   45  36  70 NW7       30.15R
WOODRUFF       MOSUNNY   45  36  70 NW7       30.15R
RHINELANDER    CLOUDY    45  35  68 VRB5      30.14S
EAGLE RIVER    MOSUNNY   44  32  63 NE3       30.14S
LAND O LAKES   CLOUDY    44  34  67 CALM      30.15S
PHILLIPS       MOSUNNY   44  35  70 N5        30.15R
TOMAHAWK       PTSUNNY   46  35  67 NE3       30.15S
MEDFORD        CLOUDY    41  38  89 N6        30.14S
MERRILL        CLOUDY    43  37  80 NE8       30.15S
$$

WIZ029-030-035-036-043>047-291600-
CENTRAL WISCONSIN

CITY           SKY/WX    TMP DP  RH WIND       PRES   REMARKS
WAUSAU         CLOUDY    47  36  65 VRB3      30.13R
MOSINEE        CLOUDY    43  37  81 N7        30.15R
MARSHFIELD     CLOUDY    46  37  71 NE8       30.15R
STEVENS POINT  CLOUDY    42  36  77 N9        30.13S
WAUPACA        CLOUDY    47  35  62 N10       30.13S
WAUTOMA        NOT AVBL
WISC RAPIDS    CLOUDY    46  34  62 VRB5      30.17R
CAMP DOUGLAS   NOT AVBL
$$

WIZ011>013-019>022-031-037>040-048>050-291600-
NORTHEAST WISCONSIN

CITY           SKY/WX    TMP DP  RH WIND       PRES   REMARKS
ANTIGO         CLOUDY    43  35  74 NE5       30.14S
SHAWANO        CLOUDY    48  36  61 N8        30.14F
OCONTO         CLOUDY    44  33  65 E9        30.14S
STURGEON BAY   CLOUDY    45  28  53 NE7       30.16S
GREEN BAY      MOSUNNY   47  35  63 NE13      30.12F
MANITOWOC      NOT AVBL
APPLETON       NOT AVBL
CLINTONVILLE   CLOUDY    46  32  57 N12       30.12F
OSHKOSH        CLOUDY    46  34  62 NE10      30.11S
$$

WIZ032>034-041-042-053>061-291600-
SOUTHWEST WISCONSIN

CITY           SKY/WX    TMP DP  RH WIND       PRES   REMARKS
LA CROSSE      CLOUDY    46  36  68 N10       30.14F
SPARTA         CLOUDY    42  39  88 N8        30.16F
VIROQUA        CLOUDY    41  38  88 N10       30.13R
BOSCOBEL       PTSUNNY   47  37  68 NE9G18    30.11F
PRAIRIE DU CHI PTSUNNY   43  35  73 N8        30.11F
PLATTEVILLE    CLOUDY    44  40  86 N14       30.08F
$$

WIZ056-057-062-063-064-067-068-291600-
SOUTH CENTRAL WISCONSIN

CITY           SKY/WX    TMP DP  RH WIND       PRES   REMARKS
REEDSBURG      CLOUDY    42  37  82 NE6       30.13R
BARABOO/DELLS  CLOUDY    43  37  80 NE8       30.12R
LONE ROCK      NOT AVBL
MINERAL POINT  PTSUNNY   45  39  81 N12       30.08F
MADISON        CLOUDY    44  37  76 N12G22    30.10F
MIDDLETON      CLOUDY    44  38  79 N9        30.12R
WATERTOWN      CLOUDY    43  38  84 N10G17    30.09S
MONROE         PTSUNNY   43  37  81 N13       30.07F
JANESVILLE     PTSUNNY   46  37  71 NE16G22   30.08S
$$

WIZ051-052-058>065-066-070>072-291600-
SOUTHEAST WISCONSIN

CITY           SKY/WX    TMP DP  RH WIND       PRES   REMARKS
MILWAUKEE      CLOUDY    41  37  86 N14       30.10R
WAUKESHA       CLOUDY    39  36  87 N7        30.10S WCI  34
MILWAUKEE/TIMM CLOUDY    39  36  87 NE7       30.11S WCI  34
RACINE         CLOUDY    42  37  82 NE13      30.11R
BURLINGTON     CLOUDY    42  37  84 NE8       30.08S
KENOSHA        CLOUDY    43  38  82 NE15      30.09R
FOND DU LAC    CLOUDY    45  36  70 N6        30.12R
SHEBOYGAN      PTSUNNY   45  37  73 NE10      30.10F
WEST BEND      CLOUDY    41  36  81 NE8       30.10S
JUNEAU         CLOUDY    41  36  81 N12       30.11S
$$

LSZ147-162-291600-
LAKE SUPERIOR

STATION/POSITION TIME  TEMP    WIND        PRES    WAVE
                       AIR SEA DIR/SP/G            HT/PER
                 (UTC) (F)     (DEG/KT/KT) (MB)    (FT/S)
W MID LAKE BUOY  1350   38 36   30/  8/ 10 1023.3R   1/ 4
DEVILS ISLAND    1400   38      40/  7/  8 1023.6R
SAXON HARBOR     1400   37     330/  2/  4 1022.0R
$$

LMZ867-665-643>646-291600-
LAKE MICHIGAN

STATION/POSITION TIME  TEMP    WIND        PRES    WAVE
                       AIR SEA DIR/SP/G            HT/PER
                 (UTC) (F)     (DEG/KT/KT) (MB)    (FT/S)
CHAMBERS ISLAND  1440   40      10/  9/ 11 1021.3S
N MID LAKE BUOY  1350   39 38   30/  8/ 10 1020.9S   0
NORTHPORT PIER   1400   39     320/  7/  7 1021.3R
ALGOMA LAKESHORE 1400           50/  9/ 11   N/A
KEWAUNEE LAKESHO 1400   42      30/  8/  9 1019.6R
SHEBOYGAN LAKESH 1400   39      10/  9/ 10 1020.9S
PORT WASHINGTON  1400   42      40/  8/ 11 1020.3F
S MID LAKE BUOY  1350   40 40   30/  8/ 10 1018.9S   1/ 3
KENOSHA   LAKESH 1400   42      10/ 12/ 13 1018.6F
$$

TC  - TEMPERATURE IN CELSIUS
VSB - VISIBILITY IN STATUTE MILES
WCI - WIND CHILL INDEX
HX  - HEAT INDEX




USA.gov is the U.S. government's official web portal to all federal, state and local government web resources and services.